sat.trackr.live / text

‹ back to catalog

STARLINK-2423

NORAD 47833 · 2021-018AY

PAYLOAD ACTIVE UNKNOWN

§ Identity

Operator
Country
US
Launch date
2021-03-11
Launch site
AFETR
Launch vehicle
Mass (kg)
RCS (m²)

Purposes: comms

External: N2YO · Heavens-Above · Gunter

§ Orbital elements

Epoch: 2026-09-20T01:50:19.364928Z

Period
94.01 min
Inclination
53.1594°
Eccentricity
0.0001260
Mean motion
15.31698120 rev/d
Perigee alt
469.9 km
Apogee alt
471.6 km
Semi-major
6,848.9 km
B*
7.6738e-5
RAAN
71.6710°
Arg perigee
80.3552°
Mean anomaly
279.7592°
Rev number
30,636

§ Raw data

STARLINK-24231 47833U 21018AY  26263.07661302  .00002017  00000+0  76738-4 0  99952 47833  53.1594  71.6710 0001260  80.3552 279.7592 15.31698120306363

JSON: /api/v1/satellites/47833 · /tle

For live sub-satellite position, see the globe view (requires WebGL).

§ Visibility from observer

Set your observer location to see the next 7 days of passes ≥ 10°. The values pass through the URL so the page stays shareable.

No JS? Fill the form by hand. The geolocation button needs JavaScript.